Time_in_sec,Mx,My,Mz
1314362757.32260203,0.23660669,0.97675514,-0.84605861
1314362757.36859608,0.23251019,0.97590470,-0.84588552
1314362757.42143989,0.23673736,0.97571015,-0.84402639
1314362757.46924663,0.23149833,0.97806799,-0.84421235
1314362757.52049756,0.23651347,0.97555131,-0.84094560
1314362757.56950688,0.23090954,0.97599226,-0.84060049
1314362757.62056899,0.23799358,0.97872752,-0.84101844
1314362757.67350864,0.23133473,0.97353786,-0.83840615
1314362757.70950532,0.23580466,0.97742629,-0.83656365
1314362757.76952624,0.23490132,0.97592080,-0.83808357
1314362757.82295585,0.23552540,0.97794026,-0.83658361
1314362757.86951637,0.23156233,0.97555906,-0.83666027
1314362757.92053962,0.23547862,0.97677696,-0.83523303
1314362757.96949697,0.23231977,0.98002493,-0.83718789
1314362758.02060246,0.23449814,0.97396177,-0.83365506
1314362758.06848788,0.23119166,0.97553104,-0.83372349
1314362758.10950875,0.23492944,0.97573841,-0.83310568
1314362758.16852760,0.23502834,0.97752923,-0.83351678
1314362758.22147512,0.23675525,0.97928047,-0.83195114
1314362758.26952004,0.23058738,0.97526801,-0.83241183
1314362758.32053995,0.23559842,0.97723931,-0.83092701
1314362758.37198377,0.23033871,0.97501117,-0.83202094
1314362758.42052841,0.23607332,0.97852230,-0.83198488
1314362758.47350645,0.23100154,0.97625822,-0.82997519
1314362758.52145553,0.23563942,0.97529423,-0.82822090
1314362758.56951380,0.23163237,0.97626114,-0.83087993
1314362758.62147355,0.23669022,0.97541845,-0.82896787
1314362758.66949248,0.23149098,0.97687620,-0.82860696
1314362758.72149158,0.23528460,0.97607768,-0.82945740
1314362758.76956201,0.23222353,0.97920412,-0.83207798
1314362758.82447791,0.23609923,0.97553539,-0.82738942
1314362758.86853361,0.23025344,0.97472298,-0.82893121
1314362758.92122221,0.23558336,0.97721744,-0.82891089
1314362758.96852803,0.23263238,0.97675288,-0.83015358
1314362759.02148843,0.23650703,0.97718906,-0.82724386
1314362759.06847167,0.22979979,0.97473562,-0.82962978
1314362759.11935449,0.23570992,0.97566319,-0.82700956
1314362759.16952753,0.22990066,0.97525102,-0.83016568
1314362759.21971750,0.23751687,0.98027837,-0.83057010
1314362759.26860166,0.23193845,0.97558975,-0.82816809
1314362759.32148266,0.23548965,0.97682816,-0.82824111
1314362759.36851048,0.23085260,0.97460449,-0.83037472
1314362759.42147470,0.23576875,0.97825140,-0.83025253
1314362759.46916437,0.23109317,0.97588289,-0.83077377
1314362759.52053070,0.23455183,0.97466701,-0.82814461
1314362759.56146169,0.23233324,0.97846764,-0.83488965
1314362759.62093186,0.23181297,0.97803628,-0.82994163
1314362759.66859269,0.23232247,0.97701770,-0.83071131
1314362759.72150850,0.23704872,0.97697878,-0.83191693
1314362759.76849055,0.23305613,0.97626072,-0.83227664
1314362759.82147241,0.23615970,0.97572553,-0.83316898
1314362759.86952662,0.23261267,0.97601640,-0.83283830
1314362759.92165089,0.23720548,0.97750825,-0.83379424
1314362759.96951318,0.23432770,0.97590691,-0.83623421
1314362760.02060890,0.23809095,0.97995913,-0.83698839
1314362760.06852388,0.23322625,0.97819006,-0.83376032
1314362760.10948610,0.23860292,0.97685063,-0.83343959
1314362760.16853285,0.23927349,0.97993064,-0.83557528
1314362760.22146344,0.23979121,0.97993052,-0.83608323
1314362760.26851177,0.23494832,0.97616678,-0.83727592
1314362760.31831956,0.23875462,0.97801852,-0.83532202
1314362760.37165999,0.23547491,0.97991192,-0.84171069
1314362760.42074037,0.23856591,0.97726494,-0.83626842
1314362760.46859837,0.23518674,0.97566062,-0.83793062
1314362760.52146554,0.23814386,0.97637904,-0.83655506
1314362760.56859279,0.23375565,0.97747219,-0.83869922
1314362760.62147427,0.23879424,0.97905570,-0.83680654
1314362760.66861749,0.23409481,0.97544152,-0.84014338
1314362760.72053218,0.23922108,0.97920042,-0.83879977
1314362760.76951575,0.23504919,0.97668225,-0.83781183
1314362760.82128048,0.23792417,0.97925085,-0.84210199
1314362760.86946201,0.23439059,0.97798431,-0.83947313
1314362760.92150807,0.24005172,0.97753239,-0.83887368
1314362760.96954131,0.23461746,0.97674012,-0.84267759
1314362761.02144623,0.23865196,0.97834271,-0.84151530
1314362761.06848288,0.23390216,0.97723866,-0.84084028
1314362761.12151384,0.23985997,0.97716182,-0.83982319
1314362761.17350507,0.23603198,0.98084617,-0.84598809
1314362761.22127581,0.23924418,0.97718078,-0.84093457
1314362761.26948476,0.23296542,0.97596979,-0.84061599
1314362761.30947232,0.23940539,0.97934216,-0.84026921
1314362761.36860418,0.23931783,0.97920668,-0.83946651
1314362761.42146254,0.23959817,0.97958499,-0.83931869
1314362761.46949410,0.23514584,0.97964567,-0.84038311
1314362761.52123380,0.23747270,0.97707081,-0.84076715
1314362761.56950212,0.23461367,0.97735363,-0.84039664
1314362761.62122726,0.24000259,0.98049903,-0.84158796
1314362761.66862202,0.23244645,0.97701490,-0.84226727
1314362761.70988059,0.24040334,0.97906929,-0.83967167
1314362761.76949859,0.23756668,0.97756279,-0.83915198
1314362761.82147408,0.23678406,0.97934920,-0.83826941
1314362761.86892533,0.23443070,0.97820693,-0.83651441
1314362761.92068291,0.23570898,0.97831237,-0.83576912
1314362761.96150398,0.23542544,0.98025435,-0.83795136
1314362762.02071333,0.23468263,0.97716343,-0.83474410
1314362762.06945348,0.23297983,0.97676057,-0.83120918
1314362762.12090254,0.23567712,0.97862673,-0.82945389
1314362762.16961646,0.23058489,0.97585648,-0.82784492
1314362762.22144461,0.23673901,0.97982210,-0.82308209
1314362762.26923704,0.22812210,0.97555345,-0.82099330
1314362762.32150650,0.23137838,0.97455710,-0.81488162
1314362762.36947608,0.22679913,0.97354788,-0.81137383
1314362762.42118168,0.23076354,0.97692406,-0.80888444
1314362762.46860433,0.22538145,0.97627789,-0.80273670
1314362762.52047539,0.22848162,0.97350168,-0.79715848
1314362762.56867075,0.22349787,0.97453564,-0.79328609
1314362762.62146306,0.22630098,0.97423881,-0.79231519
1314362762.66961908,0.22260326,0.97323400,-0.79010105
1314362762.72053099,0.22709121,0.97574121,-0.79039842
1314362762.76950741,0.22254913,0.97785908,-0.79269361
1314362762.82047534,0.22633427,0.97545797,-0.78707862
1314362762.86858916,0.22173227,0.97409534,-0.78625864
1314362762.90946794,0.22601828,0.97648895,-0.78764248
1314362762.96961474,0.22558163,0.97524810,-0.79048193
1314362763.02147555,0.22695282,0.97495323,-0.78824919
1314362763.06848860,0.22274205,0.97616464,-0.78971171
1314362763.12050581,0.22648185,0.97611666,-0.78909189
1314362763.17572689,0.22161552,0.97324991,-0.79056162
1314362763.22119761,0.22675352,0.97731113,-0.79352218
1314362763.26853323,0.22236571,0.97554976,-0.79147673
1314362763.32150912,0.22694539,0.97472441,-0.79066813
1314362763.36953092,0.22033428,0.97454756,-0.79118323
1314362763.42144680,0.22643667,0.97653258,-0.79205567
1314362763.46853113,0.22153874,0.97456437,-0.79393733
1314362763.52060771,0.22630611,0.97462034,-0.79218328
1314362763.56947541,0.22364123,0.97764242,-0.79733479
1314362763.61889362,0.22757897,0.97424155,-0.79385477
1314362763.66861749,0.22039323,0.97417849,-0.79252160
1314362763.72144747,0.22670980,0.97576475,-0.79216856
1314362763.76906276,0.22215119,0.97482580,-0.79511398
1314362763.82146716,0.22819790,0.97587949,-0.79248679
1314362763.86846399,0.22236131,0.97493786,-0.79389262
1314362763.92048025,0.22635682,0.97323287,-0.79378337
1314362763.96954656,0.22325517,0.97646987,-0.79479367
1314362764.02047849,0.22779097,0.97603542,-0.79466277
1314362764.06845641,0.22209631,0.97468406,-0.79377156
1314362764.12104464,0.22701854,0.97756487,-0.79364324
1314362764.16946173,0.22318897,0.97467279,-0.79384279
1314362764.22161984,0.22858486,0.97488439,-0.79528052
1314362764.26860285,0.22172412,0.97559834,-0.79527897
1314362764.32049465,0.22648130,0.97591126,-0.79366183
1314362764.36949515,0.22477485,0.97966331,-0.79647779
1314362764.42149019,0.22553362,0.97512978,-0.79129052
1314362764.46947241,0.22216251,0.97648114,-0.79472244
1314362764.52111793,0.22560102,0.97486186,-0.79020900
1314362764.56961703,0.22261944,0.97516817,-0.79186261
1314362764.62144828,0.22633350,0.97616982,-0.79380679
1314362764.66903877,0.22268555,0.97492522,-0.79306704
1314362764.72151613,0.22923878,0.97636342,-0.79108572
1314362764.77348065,0.22141156,0.97339177,-0.79165012
1314362764.82161140,0.22705099,0.97847587,-0.79526168
1314362764.86963081,0.22196917,0.97453141,-0.79135758
1314362764.92151952,0.22555402,0.97461587,-0.79101658
1314362764.96962261,0.22270060,0.97494709,-0.79508317
1314362765.02146316,0.22712976,0.97588605,-0.79201072
1314362765.06902313,0.22159182,0.97404420,-0.79312360
1314362765.12161183,0.22630516,0.97576803,-0.79205751
1314362765.17139864,0.22142559,0.97853851,-0.79531831
1314362765.22051692,0.22627755,0.97513580,-0.79259217
1314362765.27759647,0.22083662,0.97340286,-0.79208678
1314362765.32100797,0.22486173,0.97605193,-0.79321867
1314362765.36861181,0.22247034,0.97545171,-0.79429352
1314362765.42149949,0.22715737,0.97651827,-0.79147607
1314362765.46109891,0.22121570,0.97750920,-0.79438150
1314362765.52073550,0.22104478,0.97479022,-0.79074061
1314362765.56947827,0.22186403,0.97544408,-0.79298395
1314362765.62147880,0.22705810,0.97758204,-0.79525453
1314362765.66897392,0.22277541,0.97490805,-0.79158270
1314362765.70905662,0.22744688,0.97676736,-0.79119229
1314362765.76961207,0.22327782,0.97478330,-0.79235947
1314362765.82146645,0.22675155,0.97858649,-0.79339743
1314362765.86861038,0.22188348,0.97607785,-0.79258424
1314362765.92115736,0.22569878,0.97474039,-0.79087472
1314362765.96946216,0.22193183,0.97882026,-0.79824919
1314362766.02058887,0.22819914,0.97483450,-0.79032761
1314362766.06975317,0.22287318,0.97478658,-0.79224843
1314362766.12046719,0.22627653,0.97526348,-0.79259318
1314362766.16950250,0.22207180,0.97468877,-0.79417640
1314362766.22143555,0.22771253,0.97475070,-0.79385090
1314362766.26850271,0.22223182,0.97391790,-0.79389244
1314362766.32164693,0.22562316,0.97398990,-0.79221797
1314362766.36950779,0.22120559,0.97480893,-0.79261386
1314362766.42161036,0.22690746,0.97730637,-0.79324436
1314362766.46909308,0.22186922,0.97684556,-0.79272527
1314362766.52097535,0.22754866,0.97511512,-0.79198074
1314362766.56860852,0.22147675,0.97531646,-0.79260200
1314362766.62145090,0.22682209,0.97497827,-0.79040825
1314362766.66897869,0.22142074,0.97326249,-0.79151416
1314362766.72060466,0.22680864,0.97653556,-0.79270643
1314362766.76978588,0.22125147,0.97813988,-0.79371190
1314362766.82161999,0.22705638,0.97396290,-0.79119378
1314362766.86848044,0.21980003,0.97149092,-0.79132557
1314362766.92054081,0.22503945,0.97627294,-0.79025203
1314362766.96962476,0.22253166,0.97594994,-0.79321808
1314362767.02144718,0.22481287,0.97412407,-0.79199690
1314362767.06869173,0.22069091,0.97442603,-0.79210287
1314362767.12061620,0.22427981,0.97399968,-0.79175788
1314362767.16950250,0.22028840,0.97121662,-0.79008520
1314362767.22063851,0.22628859,0.97668839,-0.79448557
1314362767.27351642,0.22197628,0.97363758,-0.79135042
1314362767.32049489,0.22573236,0.97256649,-0.79058754
1314362767.37123322,0.22030891,0.97274268,-0.78955770
1314362767.42146182,0.22584760,0.97435415,-0.79072875
1314362767.46091795,0.22085714,0.97492892,-0.79155928
1314362767.52069139,0.22065872,0.97361767,-0.78819948
1314362767.56947660,0.22135182,0.97796839,-0.78980559
1314362767.62061644,0.22562912,0.97467953,-0.78523117
1314362767.67760181,0.21973866,0.97346842,-0.78529352
1314362767.70949411,0.22416237,0.97790039,-0.78641576
1314362767.76961660,0.22727868,0.97603834,-0.78272587
1314362767.82146811,0.22534603,0.97478700,-0.78309703
1314362767.86952496,0.22101523,0.97495192,-0.78213841
1314362767.92062330,0.22530957,0.97540671,-0.78135586
1314362767.97163367,0.22163406,0.97454989,-0.78102398
1314362768.02104044,0.22657336,0.97719717,-0.78290975
1314362768.06947565,0.22053733,0.97507197,-0.78095680
1314362768.10951853,0.22565724,0.97449714,-0.78025329
1314362768.16961813,0.22542097,0.97678787,-0.77934301
1314362768.22144628,0.22518639,0.97770053,-0.78084242
1314362768.26960731,0.22240587,0.97529083,-0.77950597
1314362768.32161474,0.22501345,0.97523695,-0.77720356
1314362768.37347579,0.22293802,0.97758287,-0.77949244
1314362768.42062807,0.22647497,0.97459179,-0.77805549
1314362768.46951985,0.22063668,0.97502816,-0.77705157
1314362768.52146292,0.22526617,0.97498304,-0.77759045
1314362768.56867933,0.21924300,0.97507232,-0.77968705
1314362768.62146068,0.22678804,0.97598380,-0.77724111
1314362768.66946340,0.22091594,0.97451419,-0.77703154
1314362768.72383547,0.22455579,0.97678030,-0.77777946
1314362768.76946449,0.22096930,0.97409672,-0.77393287
1314362768.82234025,0.22631910,0.97689188,-0.77808177
1314362768.86949635,0.22089548,0.97400814,-0.77743226
1314362768.92147827,0.22674032,0.97596818,-0.77576476
1314362768.96948004,0.22017378,0.97415006,-0.77801287
1314362769.02149892,0.22497901,0.97560126,-0.77546042
1314362769.06963229,0.22095898,0.97231370,-0.77432340
1314362769.12148261,0.22608002,0.97365117,-0.77336532
1314362769.16947961,0.22101681,0.97502965,-0.77756739
1314362769.22446203,0.22567216,0.97597480,-0.77528870
1314362769.26990294,0.22004783,0.97193247,-0.77356648
1314362769.32152390,0.22585489,0.97453731,-0.77244377
1314362769.36848998,0.21907622,0.97286254,-0.77591532
1314362769.42146540,0.22526464,0.97442383,-0.77314931
1314362769.46889997,0.22081834,0.97269839,-0.77433443
1314362769.52096438,0.22548069,0.97570693,-0.77395320
1314362769.56149864,0.21949719,0.97285616,-0.77575654
1314362769.62186337,0.21753834,0.97298759,-0.77412277
1314362769.66862798,0.21884011,0.97321606,-0.77297360
1314362769.70945787,0.22646025,0.97569257,-0.77362758
1314362769.76959419,0.22458999,0.97583181,-0.77279550
1314362769.82144356,0.22463697,0.97607780,-0.77198792
1314362769.86051416,0.21909486,0.97270674,-0.77335846
1314362769.92054510,0.21929274,0.97333109,-0.77227604
1314362769.97165060,0.22260922,0.97741938,-0.77587992
1314362770.02448606,0.22555140,0.97515869,-0.77058357
1314362770.06851435,0.21918568,0.97154188,-0.77199990
1314362770.12050128,0.22435653,0.97365952,-0.77238929
1314362770.16863370,0.21951076,0.97333884,-0.77320468
1314362770.22157001,0.22483656,0.97532409,-0.77331525
1314362770.26850724,0.21837214,0.97297639,-0.77394003
1314362770.32059431,0.22374994,0.97354919,-0.77336472
1314362770.36884189,0.21956250,0.97182369,-0.77480382
1314362770.41821933,0.22567695,0.97523361,-0.77756858
1314362770.47091150,0.21979555,0.97185332,-0.77774858
1314362770.52550387,0.22657706,0.97406220,-0.77643216
1314362770.56912279,0.21904308,0.96970618,-0.77912045
1314362770.62144828,0.22382878,0.97348082,-0.77887231
1314362770.66950464,0.21911538,0.97073704,-0.78006524
1314362770.72062254,0.22543985,0.97221905,-0.78186220
1314362770.77349496,0.22204845,0.97612429,-0.78531444
1314362770.82164145,0.22500753,0.97057009,-0.78241265
1314362770.86953306,0.22117069,0.97050917,-0.78465068
1314362770.92157888,0.22402267,0.97214019,-0.78490150
1314362770.96960020,0.22005822,0.97274119,-0.78916878
1314362771.02154875,0.22650534,0.97124249,-0.78703707
1314362771.06886244,0.21987182,0.97183490,-0.78782821
1314362771.12158656,0.22532496,0.97305554,-0.78819454
1314362771.16951561,0.22109486,0.97067595,-0.78815216
1314362771.22163653,0.22654656,0.97385877,-0.79283595
1314362771.26961756,0.21968086,0.97225398,-0.79093486
1314362771.31201768,0.22619905,0.97283107,-0.79190713
1314362771.36848974,0.22645380,0.97232181,-0.79229194
1314362771.42395115,0.22483699,0.97197670,-0.79413068
1314362771.46951866,0.22048631,0.97334242,-0.79788816
1314362771.52087355,0.22551644,0.96982759,-0.79676437
1314362771.57026148,0.22252643,0.97502995,-0.80248892
1314362771.62175512,0.22629181,0.97087234,-0.79968542
1314362771.66966605,0.22092831,0.97055179,-0.79999292
1314362771.71348238,0.22717012,0.97319710,-0.80301356
1314362771.76886272,0.22530994,0.97103935,-0.80229807
1314362771.82144403,0.22853522,0.97366840,-0.80078691
1314362771.86852860,0.22103199,0.97160143,-0.80268395
1314362771.92097473,0.22769636,0.97431803,-0.80097473
1314362771.97204399,0.22302669,0.97312063,-0.80352128
1314362772.02068925,0.22751553,0.97346020,-0.80407119
1314362772.07353640,0.22240223,0.97245425,-0.80032545
1314362772.12138009,0.22716121,0.97342902,-0.80086452
1314362772.16860509,0.22098748,0.97426265,-0.80082417
1314362772.22151732,0.22695121,0.97535700,-0.80183232
1314362772.26961327,0.22165330,0.97410667,-0.79890209
1314362772.32050371,0.22724016,0.97389919,-0.79723316
1314362772.36956549,0.22253776,0.97668523,-0.80209732
1314362772.42977667,0.22798114,0.97133106,-0.79663324
1314362772.46859622,0.22217311,0.97487110,-0.79928118
1314362772.52192473,0.22740126,0.97402060,-0.79682142
1314362772.56858945,0.22162794,0.97230178,-0.79727656
1314362772.62145615,0.22818737,0.97501379,-0.79503554
1314362772.66960835,0.22067907,0.97358525,-0.79693764
1314362772.72054744,0.22871226,0.97513974,-0.79540956
1314362772.77560306,0.22101271,0.97252613,-0.79381794
1314362772.82159138,0.22776133,0.97565860,-0.79519945
1314362772.87074327,0.22234187,0.97430408,-0.79429233
1314362772.92156124,0.22747709,0.97385383,-0.79331994
1314362772.96960783,0.22192912,0.97532886,-0.79418945
1314362773.02145004,0.22437425,0.97415859,-0.79471165
1314362773.06952691,0.22203110,0.97275937,-0.79281968
1314362773.12158966,0.22632144,0.97474492,-0.79191440
1314362773.16946721,0.22240685,0.97714609,-0.79740238
1314362773.22171974,0.22665356,0.97462803,-0.79323888
1314362773.27351880,0.22224838,0.97299749,-0.79146433
1314362773.32074070,0.22453563,0.97438264,-0.79201490
1314362773.36949229,0.22151862,0.97518098,-0.79192626
1314362773.42413831,0.22621335,0.97308338,-0.79163927
1314362773.46850896,0.22160105,0.97493494,-0.79286087
1314362773.52159023,0.22583628,0.97269881,-0.79112035
1314362773.56954527,0.22117409,0.97275025,-0.79112118
1314362773.62204361,0.22529297,0.97680861,-0.79279608
1314362773.67247915,0.21975207,0.97239256,-0.79200739
1314362773.70945501,0.22666511,0.97536606,-0.79068911
1314362773.76964283,0.22530845,0.97499591,-0.79049581
1314362773.82444644,0.22541156,0.97433865,-0.78887147
1314362773.86951303,0.22126836,0.97334492,-0.78722101
1314362773.92048931,0.22380856,0.97355896,-0.78600019
1314362773.96948314,0.22121596,0.97761190,-0.79209650
1314362774.02046084,0.22558518,0.97405040,-0.78603572
1314362774.06946445,0.21851122,0.97401547,-0.78738534
1314362774.12146831,0.22436410,0.97393405,-0.78583646
1314362774.16850090,0.22107835,0.97611207,-0.78321910
1314362774.22160912,0.22497965,0.97483236,-0.78688329
1314362774.26874256,0.22037490,0.97395557,-0.78378141
1314362774.32071733,0.22416371,0.97389817,-0.78235191
1314362774.36870885,0.21948001,0.97255123,-0.78288138
1314362774.42068481,0.22410433,0.97610176,-0.78532994
1314362774.46873617,0.21994708,0.97495848,-0.78166234
1314362774.52069712,0.22429946,0.97221470,-0.78031462
1314362774.56847310,0.21815926,0.97485161,-0.78176486
1314362774.62147975,0.22428504,0.97491968,-0.78248703
1314362774.66851282,0.21812229,0.97128874,-0.78281587
1314362774.72168088,0.22463879,0.97324395,-0.78137839
1314362774.77111530,0.22228523,0.97801614,-0.78343260
1314362774.82166457,0.22343224,0.97246253,-0.77875310
1314362774.86967111,0.21815948,0.97393435,-0.77960664
1314362774.92160320,0.22108454,0.97238868,-0.78130841
1314362774.96881008,0.21920210,0.97406018,-0.78048855
1314362775.02150893,0.22154744,0.97326672,-0.78034705
1314362775.06964159,0.21881577,0.97278494,-0.78023237
1314362775.12068129,0.22288285,0.97234124,-0.77878392
1314362775.16946125,0.21951528,0.97249496,-0.77776957
